Location: Hilton Head Island
(32.2163°N, 80.7526°W)
Time: 22:04:41
(UTC-04:00)

Vanguard 2 Rocket - Pass Details

Date: 24 February 2026
Orbit: 553 x 3286 km, 32.9° (Epoch: 13 March)

Event Time Altitude Azimuth Distance (km) Brightness Sun altitude
Rises 14:58:10 0° 281° (W) 7,224 11.9 36.5°
Reaches altitude 10° 15:03:17 10° 281° (W) 6,071 11.6 35.7°
Maximum altitude 15:21:36 81° 197° (SSW) 2,358 9.7 32.8°
Drops below altitude 10° 15:32:25 10° 112° (ESE) 3,823 9.9 31.0°
Sets 15:34:54 0° 111° (ESE) 4,520 10.2 30.6°
